DW9727 Weather Reports


Display with metric or nautical units.
time (UTC)temp
F
wind
direction
speed
MPH
gust
MPH
rain 1hr
in
rain 24hr
in
rain mn
in
humidity
%
barometer
mb
20260505085711 47 42 2.0 2.0 0.00 0.01 0.01 82 1009.9
20260505083711 48 42 1.0 2.0 0.00 0.01 0.01 81 1009.6
20260505082710 48 42 1.0 2.0 0.00 0.01 0.01 81 1009.5
20260505080711 48 42 0.0 2.0 0.00 0.01 0.01 80 1009.3
20260505075710 49 42 0.0 1.0 0.00 0.01 0.01 79 1009.4
20260505074710 49 42 0.0 2.0 0.00 0.01 0.01 79 1009.5
20260505072711 49 42 0.0 2.0 0.00 0.01 0.01 79 1009.2
20260505071710 49 42 0.0 1.0 0.00 0.01 0.01 79 1009.0
20260505070711 49 42 0.0 2.0 0.00 0.01 0.01 79 1008.9
20260505065711 49 42 1.0 1.0 0.00 0.01 0.01 78 1008.8
20260505064712 49 42 0.0 0.0 0.00 0.01 0.01 76 1008.8
20260505063711 49 42 0.0 0.0 0.01 0.01 0.01 76 1008.6
20260505062710 49 42 0.0 0.0 0.01 0.01 0.01 76 1008.5
20260505061710 49 42 0.0 2.0 0.01 0.01 0.01 77 1008.3
20260505060710 50 42 0.0 0.0 0.01 0.01 0.01 76 1008.3
20260505054710 50 42 0.0 0.0 0.01 0.01 0.01 73 1008.6
20260505051710 50 35 1.0 3.0 0.00 0.00 0.00 73 1008.6
20260505050711 51 41 0.0 2.0 0.00 0.00 0.00 73 1008.8
20260505040711 52 0 5.0 12.0 0.00 0.00 0.00 63 1008.7
20260505033711 53 15 2.0 3.0 0.00 0.00 0.00 62 1009.5
20260505031710 54 9 5.0 12.0 0.00 0.00 0.00 58 1009.0
20260505030710 54 329 5.0 13.0 0.00 0.00 0.00 55 1009.2
20260505025710 55 336 5.0 13.0 0.00 0.00 0.00 50 1008.7
20260505024711 55 347 6.0 14.0 0.00 0.00 0.00 47 1008.6
20260505022710 55 5 6.0 17.0 0.00 0.00 0.00 45 1007.7
20260505021710 55 323 9.0 15.0 0.00 0.00 0.00 46 1007.5
20260505020710 56 288 10.0 18.0 0.00 0.00 0.00 44 1007.5
20260505015710 56 5 9.0 20.0 0.00 0.00 0.00 44 1007.4
20260505014710 57 336 9.0 18.0 0.00 0.00 0.00 44 1007.4
20260505013710 57 336 14.0 20.0 0.00 0.00 0.00 43 1007.3
20260505012710 58 36 7.0 17.0 0.00 0.00 0.00 43 1006.9
20260505011711 58 0 10.0 22.0 0.00 0.00 0.00 43 1006.5
20260505010710 59 333 10.0 20.0 0.00 0.00 0.00 44 1006.3
20260505005711 59 0 10.0 20.0 0.00 0.00 0.00 43 1006.3
20260505004710 60 1 10.0 21.0 0.00 0.00 0.00 43 1006.0
20260505003710 61 17 13.0 22.0 0.00 0.00 0.00 42 1005.9
20260505002710 62 9 14.0 21.0 0.00 0.00 0.00 40 1005.6
20260505001710 63 334 12.0 21.0 0.00 0.00 0.00 38 1005.6
20260505000710 64 13 10.0 21.0 0.00 0.00 0.00 37 1005.8
20260504235711 65 15 12.0 24.0 0.00 0.00 0.00 35 1005.8
20260504234711 67 5 13.0 26.0 0.00 0.00 0.00 33 1005.8
20260504233711 68 15 10.0 20.0 0.00 0.00 0.00 33 1005.4
20260504232710 69 357 13.0 21.0 0.00 0.00 0.00 31 1005.2
20260504231710 70 8 9.0 18.0 0.00 0.00 0.00 32 1004.9
20260504230710 71 296 10.0 16.0 0.00 0.00 0.00 32 1004.7
20260504225710 70 20 11.0 23.0 0.00 0.00 0.00 34 1004.5
20260504224710 70 317 12.0 20.0 0.00 0.00 0.00 31 1004.3
20260504223710 71 313 12.0 17.0 0.00 0.00 0.00 29 1004.2
20260504221710 71 300 10.0 23.0 0.00 0.00 0.00 30 1004.1
20260504220711 72 9 10.0 18.0 0.00 0.00 0.00 30 1003.9
20260504215710 72 333 9.0 21.0 0.00 0.00 0.00 33 1003.8
20260504214711 73 319 10.0 21.0 0.00 0.00 0.00 31 1003.6
20260504212711 74 10 12.0 20.0 0.00 0.00 0.00 32 1003.5
20260504211710 74 334 10.0 20.0 0.00 0.00 0.00 32 1003.6
20260504210710 73 327 13.0 21.0 0.00 0.00 0.00 32 1003.6
20260504205710 73 42 11.0 18.0 0.00 0.00 0.00 35 1003.3
20260504203711 74 28 12.0 18.0 0.00 0.00 0.00 31 1003.3
20260504202710 75 0 8.0 20.0 0.00 0.00 0.00 30 1003.3
20260504201711 75 14 8.0 20.0 0.00 0.00 0.00 32 1003.2
20260504200711 75 331 10.0 16.0 0.00 0.00 0.00 31 1003.1
20260504194711 74 12 10.0 17.0 0.00 0.00 0.00 32 1003.1
20260504193710 75 0 12.0 20.0 0.00 0.00 0.00 35 1003.1
20260504192710 75 5 9.0 20.0 0.00 0.00 0.00 31 1002.9
20260504191710 75 0 8.0 20.0 0.00 0.00 0.00 32 1003.0
20260504190710 75 334 12.0 20.0 0.00 0.00 0.00 36 1002.9
20260504185710 74 323 14.0 23.0 0.00 0.00 0.00 34 1002.8
20260504184711 75 5 7.0 18.0 0.00 0.00 0.00 34 1002.7
20260504182711 75 329 7.0 16.0 0.00 0.00 0.00 41 1002.4
20260504181711 75 10 7.0 23.0 0.00 0.00 0.00 42 1002.5
20260504175711 74 334 11.0 18.0 0.00 0.00 0.00 41 1002.6
20260504174711 75 0 10.0 17.0 0.00 0.00 0.00 43 1002.5
20260504173710 74 319 10.0 18.0 0.00 0.00 0.00 44 1002.5
20260504172710 75 26 9.0 18.0 0.00 0.00 0.00 42 1002.5
20260504171710 75 314 12.0 18.0 0.00 0.00 0.00 43 1002.4
20260504170710 75 5 8.0 17.0 0.00 0.00 0.00 41 1002.3
20260504150710 70 254 7.0 13.0 0.00 0.00 0.00 45 1001.6
20260504140711 62 263 7.0 12.0 0.00 0.00 0.00 54 1002.0
20260504130710 52 227 2.0 3.0 0.00 0.00 0.00 69 1002.2